Regional Weather Roundup
Issued by NWS

Home | Current Version | Previous Version | Text Only | Print | Product List | Glossary On
Versions: 1 2 3 4 5 6 7 8 9 10 11 12 13 14 15 16 17 18 19 20 21 22 23 24 25 26 27 28 29 30 31 32 33 34 35 36 37 38 39 40 41 42 43 44 45 46 47 48 49 50
000
ASCA44 KEWX 241820
RWRMX

LATIN AMERICA AND CARIBBEAN REGIONAL WEATHER ROUNDUP
NATIONAL WEATHER SERVICE AUSTIN/SAN ANTONIO TX
100 PM CDT WED AUG 24 2016

NOTE: "FAIR" INDICATED FEW OR NO CLOUDS BELOW 12,000 FEET WITH NO
SIGNIFICANT WEATHER AND/OR OBSTRUCTIONS TO VISIBILITY.

BAJA CALIFORNIA

CITY           SKY/WX    TMP DP  RH WIND       PRES   REMARKS
LORETO         MOSUNNY   90  77  66 E9        29.94F HX 102
LA PAZ         MOSUNNY   88  68  51 SW3       29.97F HX  91
MEXICALI       SUNNY     93  68  43 SE6       29.93S HX  97
S.J. DEL CABO  MOSUNNY   88  70  55 SE3       30.00S HX  92
TIJUANA        SUNNY     77  57  50 NW7       30.05F

NORTHWESTERN MEXICO

CITY           SKY/WX    TMP DP  RH WIND       PRES   REMARKS
CULIACAN       PTSUNNY   90  73  58 CALM      29.97S HX  98
DURANGO        PTSUNNY   68  57  68 NW2       30.37F
GUAYMAS        MOSUNNY   91  79  66 CALM      29.93S HX 107
HERMOSILLO     MOSUNNY   93  73  52 SE8       30.01F HX 102
CD. JUAREZ     MOSUNNY   84  57  39 W10       30.10F
LOS MOCHIS     MOSUNNY   86  73  66 E7        29.99F HX  93
OBREGON        PTSUNNY   88  73  62 SE6       29.96F HX  96

NORTHEASTERN MEXICO

CITY           SKY/WX    TMP DP  RH WIND       PRES   REMARKS
CHIHUAHUA      PTSUNNY   75  55  50 CALM      30.24F
MATAMOROS      PTSUNNY   93  72  49 SE10      30.08F HX 100
MONCLOVA         N/A    N/A N/A N/A MISG        N/A
MONTERREY      SUNNY     86  64  48 SE12      30.08F
NUEVO LAREDO   SUNNY     90  68  48 SE14      30.05F HX  93
PIEDRAS NEGRAS SUNNY     90  72  55 SE16      30.07F HX  96
REYNOSA        SUNNY     91  64  40 SE17      30.06F HX  93
SALTILLO       SUNNY     82  64  54 CALM      30.30S
TORREON        MOSUNNY   84  61  45 CALM      30.19F
CD. VICTORIA   MOSUNNY   88  66  48 S6G18     30.12F HX  90

WESTERN MEXICO

CITY           SKY/WX    TMP DP  RH WIND       PRES   REMARKS
AGUASCALIENTES PTSUNNY   68  54  60 CALM      30.39F
COLIMA         PTSUNNY   82  72  69 CALM      30.11F
DEL BAJIO      CLOUDY    72  55  56 S7        30.42F
GUADALAJARA    PTSUNNY   73  59  60 E3        30.29F
MANZANILLO       N/A    N/A N/A N/A MISG        N/A
MAZATLAN       PTSUNNY   88  73  62 CALM      29.98S HX  96
P. VALLARTA    MOSUNNY   90  73  58 N2        29.96S HX  98
URUAPAN        CLOUDY    70  66  88 CALM      30.29F
ZACATECAS        N/A    N/A N/A N/A MISG        N/A

CENTRAL MEXICO

CITY           SKY/WX    TMP DP  RH WIND       PRES   REMARKS
CUERNAVACA     PTSUNNY   73  59  60 CALM      30.27F
MEXICO CITY    CLOUDY    68  52  56 SW7       30.44F
MORELIA        CLOUDY    68  59  73 CALM      30.37F
POZA RICA      PTSUNNY   79  73  83 N5        30.14F
PUEBLA         CLOUDY    68  52  56 E6        30.44F
QUERETARO      CLOUDY    63  55  77 NE7       30.45F
S. LUIS POTOSI PTSUNNY   66  48  52 E5        30.39F
TAMPICO        PTSUNNY   82  75  78 SE6       30.10F
TOLUCA         PTSUNNY   66  48  52 SW8       30.51F

SOUTHERN MEXICO

CITY           SKY/WX    TMP DP  RH WIND       PRES   REMARKS
ACAPULCO       PTSUNNY   88  75  66 W6        29.93F HX  97
B. DE HUATULCO MOSUNNY   91  75  59 CALM      29.99F HX 102
OAXACA         CLOUDY    73  54  49 W3        30.32F
P. ESCONDIDO   PTSUNNY   86  75  70 SE9       30.01F HX  95
VERACRUZ       CLOUDY    86  73  66 SW3       30.07F HX  93
ZIHUATANEJO    PTSUNNY   93  72  49 SW3       29.94F HX 100

YUCATAN PENINSULA

CITY           SKY/WX    TMP DP  RH WIND       PRES   REMARKS
CAMPECHE       MOSUNNY   90  77  66 N12       30.01F HX 102
CANCUN         MOSUNNY   88  77  70 NE10      30.03F HX 100
CHETUMAL       PTSUNNY   91  75  59 E6        30.01F HX 102
CD. DEL CARMEN PTSUNNY   91  70  49 S3        30.04F HX  97
COZUMEL        PTSUNNY   84  77  79 E13       30.02F HX  94
MERIDA         PTSUNNY   93  73  52 N12       30.03F HX 102
MINATITLAN     PTSUNNY   86  77  74 N14       30.04F HX  97
TAPACHULA      MOSUNNY   91  79  66 S7        29.86F HX 107
TUX. GUTIERREZ MOSUNNY   84  64  51 CALM      30.05F
VILLAHERMOSA   CLOUDY    90  73  58 CALM      30.06F HX  98

CENTRAL AMERICA

CITY           SKY/WX    TMP DP  RH WIND       PRES   REMARKS
BELIZE CITY    PTSUNNY   86  81  84 NE6       30.02F THUNDER HX 102
MANAGUA        PTCLDY    90  73  58 E16       29.86F HX  98

CARIBBEAN

CITY           SKY/WX    TMP DP  RH WIND       PRES   REMARKS
ARUBA          MOSUNNY   88  79  74 SE13G24   29.80S HX 102
CURACAO        MOSUNNY   88  77  70 E14       29.83F HX 100
KINGSTON       PTSUNNY   84  81  89 SE12      29.89S HX  98
NASSAU         MOSUNNY   88  79  74 CALM      30.03F HX 102
SAN JUAN       LGT RAIN  81  79  94 CALM      29.85F
SANTO DOMINGO  TSTM      84  79  84 N12       29.83S HX  96
ST. CROIX      LGT RAIN  82  79  89 S3        29.88  HX  93
ST. KITTS      PTSUNNY   84  77  79 S8        29.92F HX  94

$$





USA.gov is the U.S. government's official web portal to all federal, state and local government web resources and services.